Home > Weather > Kerman > Past weeks

Flag for Iran Weather for the Past 2 Weeks in Kerman, Iran

Now
79 °F

Passing clouds.


Feels Like: 78 °F
Forecast: 53 / 88 °F
Wind: 7 mph from North

Location: Kerman Airport

Current Time: May 4, 2016 at 8:39:34 PM

Latest Report: May 4, 2016 at 7:30 PM


Visibility: N/A

Pressure: 30.01 "Hg (24.54 "Hg at 1762m altitude)

Humidity: 16%

Dew Point: 28 °F

Location of KermanLocation

Historic Weather in Kerman — Graph

°F

Kerman Temperature Yesterday

Maximum temperature yesterday: 79 °F (at 2:20 PM)
Minimum temperature yesterday: 55 °F (at 2:30 AM)
Average temperature yesterday: 67 °F

High & Low Weather Summary for the Past Weeks

 TemperatureHumidityPressure
High88 °F (Apr 27, 4:30 PM)100% (May 2, 5:00 AM)30.27 "Hg (May 2, 5:00 AM)
Low37 °F (Apr 22, 6:30 AM)1% (Apr 22, 4:30 PM)29.98 "Hg (Apr 24, 3:30 PM)
Average67 °F26%30.11 "Hg
* Reported Apr 19 7:30 PM — May 4 6:30 PM, Kerman, Weather by CustomWeather, © 2016

Note: Actual official high and low records may vary slightly from our data, if they occured in-between our weather recording intervals... More about our weather records

Advertising

Kerman Weather History for the Previous 24 Hours

Scroll right to see more
 ConditionsComfort  
Time TempWeatherWind HumidityBarometerVisibility
6:30 PM
Wed, May 4
82 °FScattered clouds.12 mph13%30.01 "HgN/A
5:30 PM64 °FScattered clouds.12 mph56%30.01 "HgN/A
4:30 PM84 °FPassing clouds.7 mph11%30.01 "HgN/A
3:30 PM82 °FPassing clouds.9 mph14%30.01 "HgN/A
2:30 PM82 °FScattered clouds.5 mph15%30.04 "HgN/A
1:30 PM81 °FScattered clouds.7 mph17%30.07 "HgN/A
12:30 PM81 °FPassing clouds.7 mph17%30.07 "HgN/A
11:30 AM79 °FPassing clouds.5 mph18%30.09 "HgN/A
10:30 AM77 °FPassing clouds.No wind28%30.09 "HgN/A
9:30 AM73 °FPassing clouds.No wind33%30.09 "HgN/A
8:30 AM68 °FScattered clouds.No wind49%30.09 "HgN/A
7:30 AM55 °FScattered clouds.5 mph67%30.09 "HgN/A
6:30 AM52 °FPassing clouds.No wind72%30.07 "HgN/A
4:30 AM55 °FClear.No wind63%30.07 "Hg10 mi
3:30 AM57 °FClear.7 mph59%30.04 "Hg10 mi
2:30 AM55 °FClear.7 mph63%30.04 "Hg10 mi
1:30 AM57 °FClear.7 mph63%30.07 "Hg10 mi
12:30 AM61 °FClear.5 mph52%30.07 "Hg10 mi
11:30 PM
Tue, May 3
63 °FPassing clouds.5 mph49%30.09 "HgN/A
10:30 PM66 °FPassing clouds.5 mph37%30.09 "HgN/A
9:30 PM66 °FPassing clouds.14 mph40%30.07 "HgN/A
8:30 PM70 °FScattered clouds.7 mph29%30.04 "HgN/A
Weather by CustomWeather, © 2016

See weather overviewHow to use our weather pages